User: anonymous   Login
Location: Unspecified
(0.0000°N, 0.0000°E)
Time: 17:28:45
(UTC+00:00)
Language:

Temisat - Orbit

View from above orbital plane
View from above orbital plane
View from above satellite
View from above satellite

Ground track
Ground track

The orbit data is extracted from the following two-line orbital elements,

1 22783U 93055B   18018.93442295  .00000022  00000-0  63705-5 0  9990
2 22783  82.5491 214.4000 0022821 181.3245 178.7858 13.83690584231493
Epoch (UTC): 18 January 2018 22:25:34
Eccentricity: 0.0022821
inclination: 82.5491°
perigee height: 934 km
apogee height: 967 km
right ascension of ascending node: 214.4000°
argument of perigee: 181.3245°
revolutions per day: 13.83690584
mean anomaly at epoch: 178.7858°
orbit number at epoch: 23149

The dashed part of the orbit path shows where the satellite is in the earth's shadow,  

DLR